Starlink 33832

operational
NORAD ID: 63637 Int'l Des: 2025-083 Owner: SPXS Country: US Constellation: starlink
LEOCIRCULAR

About Starlink 33832

Description loading...

Live Position

Loading 3D Globe...

Upcoming Passes

Altitude History

Altitude vs Time

uPlot chart will show altitude changes over time

Two-Line Element Set

1 63637U 25083D 26033.92456853 .00025717 00000-0 93995-3 0 9999
2 63637 43.0023 201.2386 0002880 293.7338 66.3212 15.27607837 44750
Epoch: Feb 2, 2026 • Age: 24 hours

Current Status

Altitude 481.3 km
Velocity 7.63 km/s
Sub-Earth Point 10.51°N, 106.08°E
Launch Date Apr 25, 2025
Age 0.7 years
Type internet

Technical Details

Classification Payload
Mass 575.00 kg
Dry Mass 530.00 kg
Total Mass 575.00 kg
Length 0.30 m
Diameter 4.10 m
Span 29.00 m
Shape Box + pan
Manufacturer SPXS
Bus Type Starlink V2MO
Phase Status In Orbit
Owner/State SPXS/US

Large Constellations

Loading constellations...